| time (UTC) | temp F | wind direction | speed MPH | gust MPH | rain 1hr in | rain 24hr in | rain mn in | humidity % | barometer mb |
| 20260507003610 | 47 | 321 | 7.0 | 11.0 | 0.00 | 0.00 | 0.00 | 62 | 1011.5 |
| 20260507002106 | 48 | 315 | 6.0 | 11.0 | 0.00 | 0.00 | 0.00 | 60 | 1011.4 |
| 20260507000602 | 48 | 310 | 3.0 | 10.0 | 0.00 | 0.00 | 0.00 | 60 | 1011.4 |
| 20260506235056 | 47 | 329 | 4.0 | 10.0 | 0.00 | 0.00 | 0.00 | 61 | 1011.3 |
| 20260506233552 | 47 | 311 | 3.0 | 10.0 | 0.00 | 0.00 | 0.00 | 61 | 1011.3 |
| 20260506232048 | 48 | 333 | 4.0 | 13.0 | 0.00 | 0.00 | 0.00 | 58 | 1011.1 |
| 20260506230544 | 49 | 324 | 7.0 | 12.0 | 0.00 | 0.00 | 0.00 | 59 | 1011.0 |
| 20260506225040 | 49 | 336 | 5.0 | 14.0 | 0.00 | 0.00 | 0.00 | 59 | 1010.9 |
| 20260506223536 | 49 | 309 | 3.0 | 10.0 | 0.00 | 0.00 | 0.00 | 59 | 1010.8 |
| 20260506222032 | 49 | 339 | 2.0 | 8.0 | 0.00 | 0.00 | 0.00 | 59 | 1010.7 |
| 20260506220528 | 48 | 330 | 3.0 | 11.0 | 0.00 | 0.00 | 0.00 | 61 | 1010.7 |
| 20260506215024 | 49 | 309 | 8.0 | 13.0 | 0.00 | 0.00 | 0.00 | 59 | 1010.5 |
| 20260506213520 | 49 | 310 | 5.0 | 9.0 | 0.00 | 0.00 | 0.00 | 58 | 1010.5 |
| 20260506212014 | 48 | 326 | 3.0 | 10.0 | 0.00 | 0.00 | 0.00 | 58 | 1010.4 |
| 20260506210510 | 49 | 280 | 6.0 | 15.0 | 0.00 | 0.00 | 0.00 | 58 | 1010.3 |
| 20260506205004 | 48 | 306 | 4.0 | 11.0 | 0.00 | 0.00 | 0.00 | 60 | 1010.2 |
| 20260506203500 | 48 | 275 | 5.0 | 11.0 | 0.00 | 0.00 | 0.00 | 62 | 1010.0 |
| 20260506201956 | 47 | 313 | 4.0 | 7.0 | 0.00 | 0.00 | 0.00 | 62 | 1009.9 |
| 20260506200452 | 47 | 303 | 1.0 | 8.0 | 0.00 | 0.00 | 0.00 | 62 | 1009.9 |
| 20260506194948 | 47 | 317 | 5.0 | 10.0 | 0.00 | 0.00 | 0.00 | 59 | 1009.8 |
| 20260506193442 | 47 | 0 | 0.0 | 0.0 | 0.00 | 0.00 | 0.00 | 57 | 1009.7 |
| 20260506191938 | 47 | 0 | 0.0 | 3.0 | 0.00 | 0.00 | 0.00 | 58 | 1009.6 |
| 20260506190432 | 46 | 0 | 0.0 | 3.0 | 0.00 | 0.00 | 0.00 | 59 | 1009.6 |
| 20260506184928 | 45 | 299 | 2.0 | 5.0 | 0.00 | 0.00 | 0.00 | 63 | 1009.6 |
| 20260506183424 | 46 | 294 | 2.0 | 5.0 | 0.00 | 0.00 | 0.00 | 63 | 1009.4 |
| 20260506181920 | 45 | 252 | 4.0 | 6.0 | 0.00 | 0.00 | 0.00 | 63 | 1009.4 |
| 20260506180416 | 44 | 0 | 0.0 | 4.0 | 0.00 | 0.00 | 0.00 | 64 | 1009.3 |
| 20260506174912 | 44 | 286 | 2.0 | 4.0 | 0.00 | 0.00 | 0.00 | 64 | 1009.3 |
| 20260506173408 | 43 | 0 | 0.0 | 2.0 | 0.00 | 0.00 | 0.00 | 65 | 1009.2 |
| 20260506171904 | 42 | 0 | 0.0 | 0.0 | 0.00 | 0.00 | 0.00 | 68 | 1009.3 |
| 20260506170358 | 41 | 0 | 0.0 | 2.0 | 0.00 | 0.00 | 0.00 | 69 | 1009.3 |
| 20260506163348 | 40 | 0 | 0.0 | 0.0 | 0.00 | 0.00 | 0.00 | 71 | 1009.0 |
| 20260506161844 | 40 | 0 | 0.0 | 0.0 | 0.00 | 0.00 | 0.00 | 72 | 1008.9 |
| 20260506160340 | 39 | 0 | 0.0 | 0.0 | 0.00 | 0.00 | 0.00 | 75 | 1008.8 |
| 20260506154836 | 38 | 0 | 0.0 | 0.0 | 0.00 | 0.00 | 0.00 | 75 | 1008.9 |
| 20260506153332 | 38 | 0 | 0.0 | 0.0 | 0.00 | 0.00 | 0.00 | 76 | 1008.8 |
| 20260506151828 | 38 | 0 | 0.0 | 0.0 | 0.00 | 0.00 | 0.00 | 76 | 1008.8 |
| 20260506150318 | 38 | 0 | 0.0 | 0.0 | 0.00 | 0.00 | 0.00 | 77 | 1008.7 |
| 20260506144814 | 38 | 0 | 0.0 | 0.0 | 0.00 | 0.00 | 0.00 | 77 | 1008.7 |
| 20260506143310 | 37 | 0 | 0.0 | 0.0 | 0.00 | 0.00 | 0.00 | 77 | 1008.6 |
| 20260506141806 | 37 | 0 | 0.0 | 0.0 | 0.00 | 0.00 | 0.00 | 76 | 1008.6 |
| 20260506140302 | 37 | 0 | 0.0 | 0.0 | 0.00 | 0.00 | 0.00 | 75 | 1008.7 |
| 20260506134758 | 37 | 0 | 0.0 | 0.0 | 0.00 | 0.00 | 0.00 | 74 | 1008.7 |
| 20260506133254 | 37 | 0 | 0.0 | 0.0 | 0.00 | 0.00 | 0.00 | 73 | 1008.6 |
| 20260506131751 | 38 | 0 | 0.0 | 0.0 | 0.00 | 0.00 | 0.00 | 72 | 1008.6 |
| 20260506130246 | 38 | 0 | 0.0 | 0.0 | 0.00 | 0.00 | 0.00 | 71 | 1008.3 |
| 20260506124740 | 39 | 0 | 0.0 | 0.0 | 0.00 | 0.00 | 0.00 | 69 | 1008.3 |
| 20260506123237 | 39 | 0 | 0.0 | 0.0 | 0.00 | 0.00 | 0.00 | 68 | 1008.2 |
| 20260506121732 | 39 | 0 | 0.0 | 0.0 | 0.00 | 0.00 | 0.00 | 67 | 1008.0 |
| 20260506120228 | 39 | 0 | 0.0 | 0.0 | 0.00 | 0.00 | 0.00 | 67 | 1008.0 |
| 20260506114724 | 39 | 0 | 0.0 | 0.0 | 0.00 | 0.00 | 0.00 | 69 | 1007.9 |
| 20260506113220 | 39 | 0 | 0.0 | 0.0 | 0.00 | 0.00 | 0.00 | 69 | 1007.8 |
| 20260506111716 | 39 | 0 | 0.0 | 0.0 | 0.00 | 0.00 | 0.00 | 71 | 1007.8 |
| 20260506110212 | 39 | 0 | 0.0 | 0.0 | 0.00 | 0.00 | 0.00 | 72 | 1007.7 |
| 20260506104709 | 39 | 0 | 0.0 | 1.0 | 0.00 | 0.00 | 0.00 | 70 | 1007.6 |
| 20260506103204 | 39 | 0 | 0.0 | 0.0 | 0.00 | 0.00 | 0.00 | 68 | 1007.4 |
| 20260506101700 | 40 | 0 | 0.0 | 0.0 | 0.00 | 0.00 | 0.00 | 66 | 1007.3 |
| 20260506100156 | 40 | 0 | 0.0 | 0.0 | 0.00 | 0.00 | 0.00 | 68 | 1007.3 |
| 20260506094652 | 40 | 0 | 0.0 | 0.0 | 0.00 | 0.00 | 0.00 | 66 | 1007.2 |
| 20260506093148 | 40 | 0 | 0.0 | 0.0 | 0.00 | 0.00 | 0.00 | 66 | 1007.1 |
| 20260506091644 | 40 | 0 | 0.0 | 0.0 | 0.00 | 0.00 | 0.00 | 64 | 1007.2 |
| 20260506084634 | 39 | 0 | 0.0 | 0.0 | 0.00 | 0.00 | 0.00 | 63 | 1006.9 |
| 20260506083130 | 40 | 0 | 0.0 | 0.0 | 0.00 | 0.00 | 0.00 | 64 | 1006.7 |
| 20260506081626 | 41 | 0 | 0.0 | 0.0 | 0.00 | 0.00 | 0.00 | 61 | 1006.7 |
| 20260506080122 | 41 | 0 | 0.0 | 5.0 | 0.00 | 0.00 | 0.00 | 62 | 1006.6 |
| 20260506073114 | 42 | 0 | 0.0 | 0.0 | 0.00 | 0.00 | 0.00 | 62 | 1006.7 |
| 20260506071610 | 43 | 0 | 0.0 | 0.0 | 0.00 | 0.00 | 0.00 | 60 | 1006.5 |
| 20260506070106 | 43 | 0 | 0.0 | 0.0 | 0.00 | 0.00 | 0.00 | 59 | 1006.3 |
| 20260506061552 | 45 | 0 | 0.0 | 2.0 | 0.00 | 0.00 | 0.00 | 52 | 1005.7 |
| 20260506044524 | 48 | 133 | 2.0 | 7.0 | 0.00 | 0.00 | 0.00 | 49 | 1004.7 |
| 20260506043020 | 49 | 143 | 3.0 | 10.0 | 0.00 | 0.00 | 0.00 | 47 | 1004.6 |
| 20260506041516 | 49 | 167 | 3.0 | 10.0 | 0.00 | 0.00 | 0.00 | 46 | 1004.6 |
| 20260506040012 | 50 | 230 | 3.0 | 10.0 | 0.00 | 0.00 | 0.00 | 46 | 1004.5 |
| 20260506034508 | 51 | 0 | 0.0 | 10.0 | 0.00 | 0.00 | 0.00 | 44 | 1004.2 |
| 20260506033005 | 51 | 177 | 1.0 | 7.0 | 0.00 | 0.00 | 0.00 | 43 | 1004.1 |
| 20260506031500 | 51 | 0 | 0.0 | 4.0 | 0.00 | 0.00 | 0.00 | 43 | 1003.9 |
| 20260506025956 | 51 | 0 | 0.0 | 4.0 | 0.00 | 0.00 | 0.00 | 46 | 1003.9 |
| 20260506024452 | 52 | 278 | 4.0 | 8.0 | 0.00 | 0.00 | 0.00 | 46 | 1003.7 |
| 20260506022946 | 52 | 278 | 2.0 | 7.0 | 0.00 | 0.00 | 0.00 | 48 | 1003.6 |
| 20260506015936 | 52 | 0 | 0.0 | 6.0 | 0.00 | 0.00 | 0.00 | 48 | 1003.5 |
| 20260506014432 | 52 | 263 | 1.0 | 6.0 | 0.00 | 0.00 | 0.00 | 51 | 1003.5 |
| 20260506012926 | 52 | 0 | 0.0 | 5.0 | 0.00 | 0.00 | 0.00 | 50 | 1003.5 |
| 20260506011422 | 53 | 280 | 1.0 | 9.0 | 0.00 | 0.00 | 0.00 | 47 | 1003.5 |
| 20260506005916 | 52 | 0 | 0.0 | 7.0 | 0.00 | 0.00 | 0.00 | 51 | 1003.6 |